Hourly Data Report for October 28, 2014

All times are specified in Local Standard Time (LST). Add 1 hour to adjust for Daylight Saving Time where and when it is observed.

KAMLOOPS A
BRITISH COLUMBIA

50°42'09.000" N
120°26'55.000" W
345.30 m
1163781
71887
YKA

Download Data

Hourly Data (October 2014)
Hourly Data Report for October 28, 2014
Temp Definition
°C
Dew Point Temp Definition
°C
Rel Hum Definition
%
Wind Dir Definition
10's deg

Wind Spd Definition
km/h
Visibility Definition
km
Stn Press Definition
kPa
Hmdx Definition


Wind Chill Definition


Weather Definition


TIME
00:00 Legend Double Dagger 6.9 1.0 66 10 17 64.4 97.51     LegendNANA
01:00 Legend Double Dagger 7.0 0.9 65 11 17 64.4 97.46     Cloudy
02:00 Legend Double Dagger 7.0 1.1 66 9 13 64.4 97.42     LegendNANA
03:00 Legend Double Dagger 7.8 0.1 58 9 22 64.4 97.31     LegendNANA
04:00 Legend Double Dagger 7.8 -0.2 57 9 21 64.4 97.24     Cloudy
05:00 Legend Double Dagger 7.7 0.2 59 9 22 64.4 97.24     Rain
06:00 Legend Double Dagger 7.3 1.0 64 9 22 64.4 97.16     LegendNANA
07:00 Legend Double Dagger 7.5 0.9 63 9 23 64.4 97.18     Cloudy
08:00 Legend Double Dagger 7.8 1.2 63 9 30 64.4 97.15     LegendNANA
09:00 Legend Double Dagger 8.4 1.3 61 9 23 64.4 97.14     LegendNANA
10:00 Legend Double Dagger 9.2 1.6 59 9 23 64.4 97.06     Mostly Cloudy
11:00 Legend Double Dagger 9.3 2.0 60 9 16 64.4 97.07     LegendNANA
12:00 Legend Double Dagger 9.6 2.5 61 11 16 64.4 97.01     Rain
13:00 Legend Double Dagger 10.0 2.4 59 10 23 64.4 96.96     Cloudy
14:00 Legend Double Dagger 10.3 2.7 59 7 19 64.4 96.94     LegendNANA
15:00 Legend Double Dagger 9.8 2.7 61 8 20 64.4 96.97     LegendNANA
16:00 Legend Double Dagger 9.6 2.7 62 8 20 64.4 96.95     Mostly Cloudy
17:00 Legend Double Dagger 9.2 3.0 65 10 27 64.4 97.01     LegendNANA
18:00 Legend Double Dagger 8.9 3.1 67 10 20 64.4 97.02     LegendNANA
19:00 Legend Double Dagger 8.7 3.2 68 11 21 64.4 97.03     Mostly Cloudy
20:00 Legend Double Dagger 8.4 3.5 71 10 18 64.4 97.06     LegendNANA
21:00 Legend Double Dagger 8.1 4.0 75 10 17 64.4 97.05     LegendNANA
22:00 Legend Double Dagger 8.0 3.9 75 10 18 64.4 97.07     Mostly Cloudy
23:00 Legend Double Dagger 8.4 3.7 72 11 26 64.4 97.08     LegendNANA

Notes on Data Quality.

Legend

  • E = Estimated
  • M = Missing
  • NA = Not Available
  • ‡ = Partner data that is not subject to review by the National Climate Archives
Date modified: